Location: Helsinki
(60.1699°N, 24.9384°E)
Time: 16:06:47
(UTC+02:00)

Tiros 1 - Pass Details

Date: 06 October 2022
Orbit: 629 x 662 km, 48.4° (Epoch: 07 December)

Event Time Altitude Azimuth Distance (km) Brightness Sun altitude
Rises 23:31:13 0° 201° (SSW) 2,987 - -32.2°
Reaches altitude 10° 23:35:19 10° 167° (SSE) 2,077 - -32.4°
Maximum altitude 23:36:41 11° 151° (SSE) 2,001 - -32.5°
Drops below altitude 10° 23:38:03 10° 134° (SE) 2,078 - -32.6°
Sets 23:42:09 0° 100° (E) 2,988 - -32.8°
